Torna al catalogo

ATLAS 5 CENTAUR R/B

AttivoHEO
NORAD 41867·ROCKET BODY·🇺🇸 United States

Lanciato Nov 19, 2016 da Cape Canaveral Space Force Station

Loading…

Prossimi Passaggi (prossime 24 ore)

TLE

AggiornatoSource: Space-Track

Epoca: Sep 14, 2026, 16:23 UTC

1 41867U 16071B   26257.68269415 -.00000090  00000-0  00000-0 0  9994
2 41867  10.6144 243.7113 4967180 185.8086 164.9778  1.89346476 67919

Traccia ATLAS 5 CENTAUR R/B in tempo reale con AllMySat

Download on the App Store